(268440) = 2005 VH124

Discovered at Mount Lemmon on 2005-11-06 by Mt. Lemmon Survey.

Orbit

Orbit type: Main Belt

Note: WebGL enabled browser required.

epoch2023-02-25.0
epoch JD2460000.5
perihelion date2019-05-25.71257
perihelion JD2458629.21257
argument of perihelion (°)144.13829
ascending node (°)18.10081
inclination (°)3.14669
eccentricity0.1561657
perihelion distance (AU)2.1957203
Tisserand w.r.t. Jupiter3.4
ΔV w.r.t. Earth (km/sec)9.4
semimajor axis (AU)2.6020752
mean anomaly (°)321.99756
mean daily motion (°/day)0.23481410
aphelion distance (AU)3.008
period (years)4.2
P-vector [x]-0.95206335
P-vector [y]0.26631188
P-vector [z]0.15051035
Q-vector [x]-0.30542516
Q-vector [y]-0.85499139
Q-vector [z]-0.41917203
absolute magnitude17.63
phase slope0.15
uncertainty0
referenceMPO 730150
observations used191
oppositions12
arc length (days)6706
first opposition used2004
last opposition used2022
residual rms (arc-secs)0.72
perturbers coarse indicatorM-v
perturbers precise indicator003El
first observation date used2004-08-13.0
last observation date used2022-12-23.0
computer nameMPCLINUX
JD of orbit computation2456581.582595
perihelion JD uncertainty (days)1.5680E-04
argument of perihelion uncertainty (°)1.0377E-04
ascending node uncertainty (°)9.4980E-05
inclination uncertainty (°)1.0314E-05
eccentricity uncertainty 6.9171E-08
perihelion distance uncertainty (AU)1.7857E-07
Minimum Orbit Intersection Distances (in AU)
for orbit epoch: 2460000.5, reference: E2022-YB9
Mercury1.81593
Venus1.47697
Earth1.20492
Mars0.53044
Jupiter1.9667
Saturn6.43957
Uranus16.2447
Neptune26.9059

Observations

200 total observations over interval: 2004 08 13.17044 – 2022 12 23.316935
These data are available for download (format description).

Date (UT) J2000 RA J2000 Dec Magn Location Ref
2004 08 13.17044 23 15 58.15 -07 57 22.6 20.8 R 807 – Cerro Tololo Observatory, La Serena MPS 182768
2004 08 13.27677 23 15 53.80 -07 57 48.3   807 – Cerro Tololo Observatory, La Serena MPS 182768
2004 10 10.18365 22 32 49.10 -11 29 21.7 21.9 R 695 – Kitt Peak MPS 182768
2004 10 10.31582 22 32 45.66 -11 29 29.8   695 – Kitt Peak MPS 182768
2005 11 06.40174 05 02 31.88 +26 16 10.2 21.0 V G96 – Mt. Lemmon Survey MPS 181128
2005 11 06.41235 05 02 31.45 +26 16 11.0 21.1 V G96 – Mt. Lemmon Survey MPS 181128
2005 11 06.42295 05 02 31.05 +26 16 11.5 21.0 V G96 – Mt. Lemmon Survey MPS 181128
2005 11 06.43357 05 02 30.62 +26 16 12.0 20.9 V G96 – Mt. Lemmon Survey MPS 181128
2005 11 12.41737 04 58 22.23 +26 20 36.0 21.0 V 691 – Steward Observatory, Kitt Peak-Spacewatch MPS 181128
2005 11 12.43481 04 58 21.49 +26 20 37.5 21.4 V 691 – Steward Observatory, Kitt Peak-Spacewatch MPS 181128
2005 11 12.45234 04 58 20.62 +26 20 37.8 21.6 V 691 – Steward Observatory, Kitt Peak-Spacewatch MPS 181128
2005 11 21.24554 04 50 39.04 +26 22 20.4 21.5 V 691 – Steward Observatory, Kitt Peak-Spacewatch MPS 181128
2005 11 21.26300 04 50 38.00 +26 22 19.7 21.4 V 691 – Steward Observatory, Kitt Peak-Spacewatch MPS 181128
2005 11 21.28038 04 50 36.94 +26 22 20.0 21.4 V 691 – Steward Observatory, Kitt Peak-Spacewatch MPS 181128
2005 12 10.11439 04 30 39.73 +26 04 23.7 20.7 V 691 – Steward Observatory, Kitt Peak-Spacewatch MPS 181128
2005 12 10.13185 04 30 38.64 +26 04 21.9 21.1 V 691 – Steward Observatory, Kitt Peak-Spacewatch MPS 181128
2005 12 10.14932 04 30 37.49 +26 04 20.1 21.1 V 691 – Steward Observatory, Kitt Peak-Spacewatch MPS 181128
2007 03 15.46434 15 15 19.00 -19 01 52.3 21.1 V G96 – Mt. Lemmon Survey MPS 203120
2007 03 15.47170 15 15 19.08 -19 01 52.6 21.6 V G96 – Mt. Lemmon Survey MPS 203120
2007 03 15.47905 15 15 19.11 -19 01 54.3 21.8 V G96 – Mt. Lemmon Survey MPS 203120
2007 03 15.48640 15 15 19.22 -19 01 54.6 21.3 V G96 – Mt. Lemmon Survey MPS 203120
2007 04 15.41097 15 05 51.39 -19 23 33.6 20.6 V 691 – Steward Observatory, Kitt Peak-Spacewatch MPS 206944
2007 04 15.42865 15 05 50.52 -19 23 33.3 20.9 V 691 – Steward Observatory, Kitt Peak-Spacewatch MPS 206944
2007 04 15.44634 15 05 49.74 -19 23 31.9 21.1 V 691 – Steward Observatory, Kitt Peak-Spacewatch MPS 206944
2007 04 19.43878 15 02 40.62 -19 18 16.4 20.9 V 691 – Steward Observatory, Kitt Peak-Spacewatch MPS 206944
2007 04 19.45742 15 02 39.64 -19 18 14.7 21.0 V 691 – Steward Observatory, Kitt Peak-Spacewatch MPS 206944
2007 04 19.47582 15 02 38.70 -19 18 12.5 21.1 V 691 – Steward Observatory, Kitt Peak-Spacewatch MPS 206944
2007 05 11.31784 14 42 20.84 -18 25 39.0 20.1 V G96 – Mt. Lemmon Survey MPS 208967
2007 05 11.32451 14 42 20.44 -18 25 37.5 20.3 V G96 – Mt. Lemmon Survey MPS 208967
2007 05 11.33113 14 42 20.05 -18 25 36.3 20.3 V G96 – Mt. Lemmon Survey MPS 208967
2007 05 11.33777 14 42 19.69 -18 25 35.1 20.1 V G96 – Mt. Lemmon Survey MPS 208967
2009 11 08.38423 03 06 40.60 +20 05 02.1 21.2 V G96 – Mt. Lemmon Survey MPS 302194
2009 11 08.38991 03 06 40.28 +20 05 01.0 20.6 V G96 – Mt. Lemmon Survey MPS 302194
2009 11 08.39553 03 06 39.92 +20 05 00.5 21.5 V G96 – Mt. Lemmon Survey MPS 302194
2009 11 08.40127 03 06 39.60 +20 04 59.0 20.6 V G96 – Mt. Lemmon Survey MPS 302194
2009 11 10.36039 03 04 41.52 +19 59 11.9 20.4 V G96 – Mt. Lemmon Survey MPS 302194
2009 11 10.36637 03 04 41.12 +19 59 10.5 20.9 V G96 – Mt. Lemmon Survey MPS 302194
2009 11 10.37240 03 04 40.76 +19 59 09.4 20.7 V G96 – Mt. Lemmon Survey MPS 302194
2009 11 10.37876 03 04 40.36 +19 59 08.9 20.9 V G96 – Mt. Lemmon Survey MPS 302194
2011 02 25.44825 13 16 06.10 -06 32 02.5 21.5 V 691 – Steward Observatory, Kitt Peak-Spacewatch MPS 372006
2011 02 25.46592 13 16 05.89 -06 32 02.8 21.6 V 691 – Steward Observatory, Kitt Peak-Spacewatch MPS 372006
2011 02 25.48361 13 16 05.68 -06 32 02.8 21.6 V 691 – Steward Observatory, Kitt Peak-Spacewatch MPS 372006
2011 03 14.48777 13 09 04.32 -06 13 31.4 21.5 V G96 – Mt. Lemmon Survey MPS 374801
2011 03 14.49012 13 09 04.21 -06 13 31.0 20.4 V G96 – Mt. Lemmon Survey MPS 374801
2011 03 14.49247 13 09 04.10 -06 13 30.9 20.3 V G96 – Mt. Lemmon Survey MPS 374801
2011 03 14.49478 13 09 04.03 -06 13 30.3 21.1 V G96 – Mt. Lemmon Survey MPS 374801
2011 03 30.32696 12 56 34.18 -05 24 58.2 20.2 V G96 – Mt. Lemmon Survey MPS 377057
2011 03 30.32928 12 56 34.04 -05 24 57.8 19.9 V G96 – Mt. Lemmon Survey MPS 377057
2011 03 30.33340 12 56 33.82 -05 24 56.7 20.1 V G96 – Mt. Lemmon Survey MPS 377057
2011 03 30.33571 12 56 33.68 -05 24 56.6 19.9 V G96 – Mt. Lemmon Survey MPS 377057
2011 03 30.33980 12 56 33.46 -05 24 55.5 20.3 V G96 – Mt. Lemmon Survey MPS 377057
2011 03 30.34211 12 56 33.36 -05 24 55.5 19.8 V G96 – Mt. Lemmon Survey MPS 377057
2011 03 30.34854 12 56 33.00 -05 24 53.7 19.8 V G96 – Mt. Lemmon Survey MPS 377057
2011 04 03.43885 12 52 52.758 -05 09 57.21 20.4 w F51 – Pan-STARRS 1, Haleakala MPS 378541
2011 04 03.45275 12 52 51.959 -05 09 54.18 20.4 w F51 – Pan-STARRS 1, Haleakala MPS 378541
2011 04 03.46859 12 52 51.059 -05 09 50.63 20.4 w F51 – Pan-STARRS 1, Haleakala MPS 378541
2011 04 03.48246 12 52 50.265 -05 09 47.54 20.4 w F51 – Pan-STARRS 1, Haleakala MPS 378541
2011 04 05.18334 12 51 18.63 -05 03 34.3 19.6 R H15 – ISON-NM Observatory, Mayhill MPS 378541
2011 04 05.19688 12 51 17.86 -05 03 31.4 19.5 R H15 – ISON-NM Observatory, Mayhill MPS 378541
2011 04 05.21038 12 51 17.09 -05 03 28.6 19.6 R H15 – ISON-NM Observatory, Mayhill MPS 378541
2011 04 05.22540 12 51 16.23 -05 03 25.4 19.6 R H15 – ISON-NM Observatory, Mayhill MPS 378541
2011 04 29.21091 12 33 05.83 -03 54 08.1 20.7 V G96 – Mt. Lemmon Survey MPS 381106
2011 04 29.21613 12 33 05.68 -03 54 07.6 20.7 V G96 – Mt. Lemmon Survey MPS 381106
2011 04 29.22140 12 33 05.47 -03 54 06.9 20.7 V G96 – Mt. Lemmon Survey MPS 381106
2011 04 29.22663 12 33 05.29 -03 54 06.3 20.6 V G96 – Mt. Lemmon Survey MPS 381106
2013 10 05.38280 02 05 52.745 +13 27 37.81 21.7 w F51 – Pan-STARRS 1, Haleakala MPS 482060
2013 10 05.39639 02 05 52.096 +13 27 35.52 21.6 w F51 – Pan-STARRS 1, Haleakala MPS 482060
2013 10 05.41007 02 05 51.446 +13 27 33.14 21.8 w F51 – Pan-STARRS 1, Haleakala MPS 482060
2013 10 05.42379 02 05 50.773 +13 27 30.77 21.7 w F51 – Pan-STARRS 1, Haleakala MPS 482060
2015 01 27.60792 11 11 27.184 +09 26 07.53 20.8 w F51 – Pan-STARRS 1, Haleakala MPS 569248
2015 01 27.62012 11 11 26.958 +09 26 08.82 20.8 w F51 – Pan-STARRS 1, Haleakala MPS 569248
2015 01 27.63226 11 11 26.742 +09 26 10.13 20.8 w F51 – Pan-STARRS 1, Haleakala MPS 569248
2015 01 27.64434 11 11 26.518 +09 26 11.41 20.9 w F51 – Pan-STARRS 1, Haleakala MPS 569248
2015 01 29.62018 11 10 52.053 +09 30 04.55 20.7 w F51 – Pan-STARRS 1, Haleakala MPS 569248
2015 01 29.63234 11 10 51.786 +09 30 06.15 20.7 w F51 – Pan-STARRS 1, Haleakala MPS 569248
2015 01 29.64448 11 10 51.522 +09 30 07.56 20.7 w F51 – Pan-STARRS 1, Haleakala MPS 569248
2015 01 29.65658 11 10 51.270 +09 30 09.16 20.9 w F51 – Pan-STARRS 1, Haleakala MPS 569248
2015 02 11.34883 11 04 26.33 +10 07 34.9 20.2 V 691 – Steward Observatory, Kitt Peak-Spacewatch MPS 579367
2015 02 11.36908 11 04 25.47 +10 07 39.5 20.6 V 691 – Steward Observatory, Kitt Peak-Spacewatch MPS 579367
2015 02 11.39887 11 04 24.16 +10 07 46.1 20.5 V 691 – Steward Observatory, Kitt Peak-Spacewatch MPS 579367
2015 02 16.35312 11 00 47.026 +10 26 46.84 20.1 w F51 – Pan-STARRS 1, Haleakala MPS 582815
2015 02 16.36568 11 00 46.408 +10 26 49.91 20.2 w F51 – Pan-STARRS 1, Haleakala MPS 582815
2015 02 16.37822 11 00 45.789 +10 26 53.00 20.2 w F51 – Pan-STARRS 1, Haleakala MPS 582815
2015 02 25.30973 10 53 09.78 +11 03 24.4 20.2 r I41 – Palomar Mountain--ZTF MPS 585373
2015 02 25.31683 10 53 09.38 +11 03 26.6 19.8 r I41 – Palomar Mountain--ZTF MPS 585373
2015 02 25.32396 10 53 08.99 +11 03 28.1 20.1 r I41 – Palomar Mountain--ZTF MPS 585373
2015 02 25.34536 10 53 07.79 +11 03 33.5 19.6 r I41 – Palomar Mountain--ZTF MPS 585373
2015 02 25.42292 10 53 03.36 +11 03 52.0 19.9 V 703 – Catalina Sky Survey MPS 585373
2015 02 25.42490 10 53 03.28 +11 03 52.7 20.0 r I41 – Palomar Mountain--ZTF MPS 585373
